• In Uzbekistan
  • List of Countries
  • For 7 days
  • Water Temperature
  • Satellite Maps
  • Weather Map
  • Weather Widgets
  • user-avatar
    Login

    Hourly Weather Ischgl

    Today, 5 December, Monday

    Time Temperature Precipitation Wind Pressure Humidity
    00:00 -13°C° 0 mm 2 mps 573 mmHg 89%
    01:00 -13°C° 0 mm 2 mps 572 mmHg 88%
    02:00 -13°C° 0 mm 2 mps 572 mmHg 88%
    03:00 -13°C° 0 mm 2 mps 572 mmHg 88%
    04:00 -13°C° 0 mm 2 mps 572 mmHg 87%
    05:00 -13°C° 0 mm 2 mps 572 mmHg 87%
    06:00 -13°C° 0 mm 2 mps 572 mmHg 87%
    07:00 -13°C° 0 mm 2 mps 572 mmHg 87%
    08:00 -10°C° 0 mm 2 mps 573 mmHg 84%
    09:00 -8°C° 0 mm 1 mps 575 mmHg 82%
    10:00 -6°C° 0 mm 1 mps 576 mmHg 79%
    11:00 -4°C° 0 mm 1 mps 576 mmHg 78%
    12:00 -2°C° 0 mm 1 mps 577 mmHg 77%
    13:00 -1°C° 0 mm 1 mps 577 mmHg 75%
    14:00 -5°C° 0 mm 0 mps 576 mmHg 82%
    15:00 -7°C° 0 mm 0 mps 574 mmHg 88%
    16:00 -10°C° 0 mm 0 mps 572 mmHg 94%
    17:00 -11°C° 0 mm 0 mps 572 mmHg 94%
    18:00 -12°C° 0 mm 0 mps 572 mmHg 94%
    19:00 -12°C° 0 mm 1 mps 571 mmHg 94%
    20:00 -12°C° 0 mm 1 mps 572 mmHg 92%
    21:00 -12°C° 0 mm 1 mps 572 mmHg 91%
    22:00 -12°C° 0 mm 1 mps 572 mmHg 90%
    23:00 -13°C° 0 mm 1 mps 572 mmHg 88%

    Tomorrow, 6 December, Tuesday

    Time Temperature Precipitation Wind Pressure Humidity
    00:00 -13°C° 0 mm 1 mps 572 mmHg 86%
    01:00 -13°C° 0 mm 1 mps 572 mmHg 84%
    02:00 -12°C° 0 mm 1 mps 572 mmHg 83%
    03:00 -12°C° 0 mm 1 mps 572 mmHg 82%
    04:00 -12°C° 0 mm 1 mps 573 mmHg 80%
    05:00 -12°C° 0 mm 1 mps 573 mmHg 81%
    06:00 -12°C° 0 mm 1 mps 573 mmHg 82%
    07:00 -12°C° 0 mm 1 mps 573 mmHg 83%
    08:00 -10°C° 0 mm 1 mps 575 mmHg 81%
    09:00 -7°C° 0 mm 1 mps 576 mmHg 78%
    10:00 -4°C° 0 mm 1 mps 577 mmHg 75%
    11:00 -3°C° 0 mm 1 mps 578 mmHg 75%
    12:00 -2°C° 0 mm 1 mps 578 mmHg 75%
    13:00 -1°C° 0 mm 1 mps 578 mmHg 75%
    14:00 -3°C° 0 mm 1 mps 577 mmHg 81%
    15:00 -6°C° 0 mm 1 mps 576 mmHg 87%
    16:00 -8°C° 0 mm 1 mps 575 mmHg 92%
    17:00 -10°C° 0 mm 1 mps 575 mmHg 92%
    18:00 -11°C° 0 mm 1 mps 574 mmHg 91%
    19:00 -12°C° 0 mm 1 mps 574 mmHg 90%
    20:00 -12°C° 0 mm 1 mps 574 mmHg 84%
    21:00 -12°C° 0 mm 1 mps 574 mmHg 78%
    22:00 -13°C° 0 mm 1 mps 574 mmHg 72%
    23:00 -13°C° 0 mm 1 mps 573 mmHg 67%

    Day after tomorrow, 7 December, Wednesday

    Time Temperature Precipitation Wind Pressure Humidity
    00:00 -13°C° 0 mm 1 mps 573 mmHg 61%
    01:00 -13°C° 0 mm 1 mps 573 mmHg 56%
    02:00 -13°C° 0 mm 1 mps 573 mmHg 53%
    03:00 -13°C° 0 mm 1 mps 573 mmHg 50%
    04:00 -13°C° 0 mm 1 mps 573 mmHg 47%
    05:00 -13°C° 0 mm 1 mps 573 mmHg 46%
    06:00 -13°C° 0 mm 1 mps 573 mmHg 44%
    07:00 -13°C° 0 mm 1 mps 573 mmHg 42%
    08:00 -11°C° 0 mm 1 mps 575 mmHg 44%
    09:00 -8°C° 0 mm 1 mps 577 mmHg 45%
    10:00 -4°C° 0 mm 1 mps 579 mmHg 46%
    11:00 -4°C° 0 mm 0 mps 579 mmHg 51%
    12:00 -2°C° 0 mm 0 mps 580 mmHg 56%
    13:00 -1°C° 0 mm 0 mps 581 mmHg 61%
    14:00 -4°C° 0 mm 0 mps 579 mmHg 62%
    15:00 -7°C° 0 mm 0 mps 577 mmHg 63%
    16:00 -10°C° 0 mm 0 mps 576 mmHg 65%
    17:00 -10°C° 0 mm 0 mps 575 mmHg 63%
    18:00 -11°C° 0 mm 0 mps 575 mmHg 61%
    19:00 -12°C° 0 mm 1 mps 574 mmHg 59%
    20:00 -12°C° 0 mm 1 mps 575 mmHg 57%
    21:00 -12°C° 0 mm 1 mps 575 mmHg 54%
    22:00 -11°C° 0 mm 1 mps 575 mmHg 52%
    23:00 -11°C° 0 mm 1 mps 575 mmHg 51%

    8 December, Thursday

    Time Temperature Precipitation Wind Pressure Humidity
    00:00 -11°C° 0 mm 1 mps 575 mmHg 50%
    01:00 -11°C° 0 mm 1 mps 575 mmHg 50%
    02:00 -11°C° 0 mm 1 mps 575 mmHg 49%
    03:00 -10°C° 0 mm 1 mps 576 mmHg 48%
    04:00 -10°C° 0 mm 1 mps 576 mmHg 48%
    05:00 -10°C° 0 mm 1 mps 576 mmHg 49%
    06:00 -10°C° 0 mm 1 mps 576 mmHg 49%
    07:00 -10°C° 0 mm 1 mps 576 mmHg 50%
    08:00 -8°C° 0 mm 1 mps 577 mmHg 50%
    09:00 -6°C° 0 mm 1 mps 579 mmHg 51%
    10:00 -2°C° 0 mm 1 mps 580 mmHg 51%
    11:00 -1°C° 0 mm 1 mps 581 mmHg 55%
    12:00 0°C° 0 mm 1 mps 581 mmHg 60%
    13:00 +1°C° 0 mm 1 mps 582 mmHg 64%
    14:00 -1°C° 0 mm 1 mps 580 mmHg 64%
    15:00 -3°C° 0 mm 1 mps 579 mmHg 63%
    16:00 -7°C° 0 mm 1 mps 577 mmHg 63%
    17:00 -8°C° 0 mm 1 mps 577 mmHg 64%
    18:00 -9°C° 0 mm 1 mps 576 mmHg 64%
    19:00 -10°C° 0 mm 1 mps 576 mmHg 64%
    20:00 -10°C° 0 mm 1 mps 576 mmHg 62%
    21:00 -9°C° 0 mm 1 mps 576 mmHg 61%
    22:00 -9°C° 0 mm 1 mps 576 mmHg 60%
    23:00 -9°C° 0 mm 1 mps 576 mmHg 58%

    9 December, Friday

    Time Temperature Precipitation Wind Pressure Humidity
    00:00 -9°C° 0 mm 1 mps 576 mmHg 57%
    01:00 -9°C° 0 mm 1 mps 576 mmHg 55%
    02:00 -9°C° 0 mm 1 mps 576 mmHg 55%
    03:00 -8°C° 0 mm 1 mps 576 mmHg 54%
    04:00 -8°C° 0 mm 1 mps 577 mmHg 54%
    05:00 -8°C° 0 mm 1 mps 577 mmHg 53%
    06:00 -7°C° 0 mm 1 mps 577 mmHg 52%
    07:00 -7°C° 0 mm 1 mps 577 mmHg 52%
    08:00 -4°C° 0 mm 1 mps 578 mmHg 54%
    09:00 -3°C° 0 mm 1 mps 579 mmHg 56%
    10:00 -2°C° 0 mm 1 mps 580 mmHg 58%
    11:00 0°C° 0 mm 1 mps 580 mmHg 60%
    12:00 0°C° 0 mm 0 mps 581 mmHg 62%
    13:00 +1°C° 0 mm 0 mps 581 mmHg 64%
    14:00 -2°C° 0 mm 0 mps 579 mmHg 64%
    15:00 -4°C° 0 mm 0 mps 578 mmHg 63%
    16:00 -6°C° 0 mm 0 mps 576 mmHg 63%
    17:00 -7°C° 0 mm 0 mps 576 mmHg 62%
    18:00 -7°C° 0 mm 0 mps 575 mmHg 61%
    19:00 -8°C° 0 mm 0 mps 575 mmHg 60%
    20:00 -8°C° 0 mm 0 mps 575 mmHg 59%
    21:00 -9°C° 0 mm 0 mps 575 mmHg 57%
    22:00 -9°C° 0 mm 0 mps 574 mmHg 56%
    23:00 -9°C° 0 mm 1 mps 574 mmHg 56%

    10 December, Saturday

    Time Temperature Precipitation Wind Pressure Humidity
    00:00 -9°C° 0 mm 1 mps 574 mmHg 55%
    01:00 -9°C° 0 mm 1 mps 574 mmHg 55%
    02:00 -8°C° 0 mm 1 mps 574 mmHg 55%
    03:00 -8°C° 0 mm 1 mps 574 mmHg 55%
    04:00 -8°C° 0 mm 1 mps 574 mmHg 55%
    05:00 -8°C° 0 mm 1 mps 574 mmHg 55%
    06:00 -8°C° 0 mm 1 mps 573 mmHg 55%
    07:00 -8°C° 0 mm 1 mps 573 mmHg 56%
    08:00 -6°C° 0 mm 1 mps 575 mmHg 55%
    09:00 -3°C° 0 mm 1 mps 576 mmHg 55%
    10:00 -2°C° 0 mm 1 mps 577 mmHg 55%
    11:00 0°C° 0 mm 1 mps 577 mmHg 59%
    12:00 +1°C° 0 mm 1 mps 577 mmHg 63%
    13:00 +2°C° 0 mm 1 mps 578 mmHg 67%
    14:00 0°C° 0 mm 1 mps 576 mmHg 67%
    15:00 -2°C° 0 mm 1 mps 575 mmHg 67%
    16:00 -4°C° 0 mm 1 mps 574 mmHg 68%
    17:00 -6°C° 0 mm 1 mps 573 mmHg 65%
    18:00 -7°C° 0 mm 1 mps 573 mmHg 62%
    19:00 -8°C° 0 mm 1 mps 572 mmHg 59%
    20:00 -8°C° 0 mm 1 mps 572 mmHg 57%
    21:00 -8°C° 0 mm 1 mps 572 mmHg 56%
    22:00 -8°C° 0 mm 1 mps 572 mmHg 54%
    23:00 -9°C° 0 mm 1 mps 572 mmHg 53%
    Show more